Weather History for Marrakech, Morocco

Change the Weather History Date:

Thursday, February 14, 2013

  Actual Average Record
Temperature  
Mean Temperature 62 °F -  
Max Temperature 81 °F 70 °F 81 °F (2013)
Min Temperature 42 °F 47 °F 37 °F (2012)
Degree Days  
Heating Degree Days 4    
Growing Degree Days 12 (Base 50)    
Moisture  
Dew Point 40 °F    
Average Humidity 43    
Maximum Humidity 87    
Minimum Humidity 15    
Precipitation  
Precipitation 0.00 in 0.05 in - ()
Sea Level Pressure  
Sea Level Pressure 30.12 in    
Wind  
Wind Speed 4 mph ()    
Max Wind Speed 7 mph    
Max Gust Speed -    
Visibility 5.6 miles    
Events      
Averages and records for this station are not official NWS values.
T = Trace of Precipitation, MM = Missing Value Source: Averaged Metar Reports

Daily Weather History Graph

Daily Weather History Graph

Search for Another Location

Airport:

Trip Planner

Search our weather history database for the weather conditions in past years. The results will help you decide how hot, cold, wet, or windy it might be!

Date:

Astronomy

Feb. 14, 2013 Rise Set
Actual Time 7:14 AM WET 6:18 PM WET
Civil Twilight 6:49 AM WET 6:43 PM WET
Nautical Twilight 6:21 AM WET 7:11 PM WET
Astronomical Twilight 5:52 AM WET 7:40 PM WET
Moon 9:29 AM WET (2/14) 10:45 PM WET (2/14)
Length of Visible Light 11h 53m
Length of Day
11h 03m
Waxing Crescent, 19% of the Moon is Illuminated
Feb 14
Waxing Crescent
Feb 17
First Quarter
Feb 25
Full
Mar 4
Last Quarter
Mar 11
New

Hourly Weather History & Observations

Time (WET) Temp. Windchill Dew Point Humidity Pressure Visibility Wind Dir Wind Speed Gust Speed Precip Events Conditions
12:00 AM 52 °F - 41 °F 56% 30.17 in 6 mi East 6.9 mph - -  
12:00 AM 51.8 °F - 41.0 °F 67% 30.15 in - East 6.9 mph - N/A   Clear
3:00 AM 48 °F - 41 °F 68% 30.16 in 6 mi ESE 4.6 mph - -  
6:00 AM 44 °F - 40 °F 79% 30.16 in 6 mi East 4.6 mph - -  
6:00 AM 44.6 °F 42.2 °F 39.2 °F 81% 30.12 in - East 4.6 mph - N/A   Clear
6:30 AM 44.6 °F 42.2 °F 39.2 °F 81% 30.12 in - East 4.6 mph - N/A   Clear
7:00 AM 42.8 °F - 39.2 °F 87% 30.12 in - East 2.3 mph - N/A   Clear
7:30 AM 42.8 °F 41.1 °F 39.2 °F 87% 30.12 in - East 3.5 mph - N/A   Clear
8:00 AM 48.2 °F - 41.0 °F 76% 30.12 in - East 3.5 mph - N/A   Clear
8:30 AM 55.4 °F - 42.8 °F 63% 30.15 in - East 2.3 mph - N/A   Clear
9:00 AM 58 °F - 43 °F 46% 30.15 in 4 mi East 3.5 mph - -  
9:00 AM 57.2 °F - 42.8 °F 59% 30.15 in 3.7 mi East 3.5 mph - N/A   Unknown
9:30 AM 60.8 °F - 42.8 °F 52% 30.15 in 3.7 mi Variable 2.3 mph - N/A   Unknown
10:00 AM 64.4 °F - 42.8 °F 45% 30.15 in 5.0 mi Variable 2.3 mph - N/A   Unknown
10:30 AM 69.8 °F - 44.6 °F 40% 30.15 in 5.6 mi Variable 2.3 mph - N/A   Unknown
11:00 AM 71.6 °F - 42.8 °F 35% 30.15 in 5.6 mi Variable 1.2 mph - N/A   Unknown
11:30 AM 73.4 °F - 42.8 °F 33% 30.15 in 5.6 mi Variable 2.3 mph - N/A   Unknown
12:00 PM 77 °F - 44 °F 20% 30.08 in 6 mi Calm Calm - -  
12:00 PM 75.2 °F - 42.8 °F 31% 30.15 in - Variable 1.2 mph - N/A   Clear
12:30 PM 77.0 °F - 42.8 °F 29% 30.12 in - Calm Calm - N/A   Clear
1:00 PM 77.0 °F - 41.0 °F 28% 30.12 in - Variable 2.3 mph - N/A   Clear
1:30 PM 78.8 °F - 41.0 °F 26% 30.12 in - North 4.6 mph - N/A   Clear
2:00 PM 78.8 °F - 41.0 °F 26% 30.09 in - NNW 5.8 mph - N/A   Clear
2:30 PM 80.6 °F - 41.0 °F 24% 30.09 in - NNW 4.6 mph - N/A   Clear
3:00 PM 80.6 °F - 39.2 °F 23% 30.09 in - WNW 4.6 mph - N/A   Clear
3:30 PM 80.6 °F - 35.6 °F 20% 30.09 in - Variable 2.3 mph - N/A   Clear
4:00 PM 82.4 °F - 33.8 °F 17% 30.06 in - Variable 3.5 mph - N/A   Clear
4:30 PM 80.6 °F - 37.4 °F 21% 30.06 in 6.2 mi West 6.9 mph - N/A   Partly Cloudy
5:00 PM 80.6 °F - 35.6 °F 20% 30.06 in 6.2 mi West 5.8 mph - N/A   Partly Cloudy
6:00 PM 77 °F - 38 °F 15% 30.03 in 6 mi WSW 6.9 mph - -   Scattered Clouds
6:00 PM 77.0 °F - 39.2 °F 26% 30.09 in 6.2 mi WSW 6.9 mph - N/A   Partly Cloudy
6:30 PM 71.6 °F - 37.4 °F 29% 30.09 in 6.2 mi WSW 5.8 mph - N/A   Partly Cloudy
7:00 PM 68.0 °F - 37.4 °F 33% 30.09 in 6.2 mi SW 5.8 mph - N/A   Partly Cloudy
7:30 PM 66.2 °F - 37.4 °F 35% 30.09 in - SW 6.9 mph - N/A   Clear
8:00 PM 66.2 °F - 37.4 °F 35% 30.12 in - West 3.5 mph - N/A   Clear
8:30 PM 62.6 °F - 37.4 °F 39% 30.12 in - Variable 2.3 mph - N/A   Clear
9:00 PM 63 °F - 40 °F 31% 30.12 in 6 mi ENE 3.5 mph - -  
9:00 PM 62.6 °F - 39.2 °F 42% 30.12 in - Variable 2.3 mph - N/A   Clear
9:30 PM 62.6 °F - 41.0 °F 45% 30.15 in - East 6.9 mph - N/A   Clear
10:00 PM 62.6 °F - 41.0 °F 45% 30.15 in - SSE 4.6 mph - N/A   Clear
11:00 PM 57.2 °F - 37.4 °F 48% 30.15 in - Variable 2.3 mph - N/A   Clear
11:30 PM 57.2 °F - 41.0 °F 55% 30.15 in - SSW 4.6 mph - N/A   Clear